STARLINK-1042, 44747

Orbit data source: Space-Track

STARLINK-1042, 44747 is a payload satellite owned by SpaceX/Seattle (US) in LEO that was launched on Mon, 11 Nov 2019 UTC via an FALCON 9 launch vehicle from the Air Force Eastern Test Range (AFETR). Payloads include a variety of satellites, spacecraft, and rockets equipped with specific instruments for various scientific and technological missions. These include communications satellites like Starlink; space stations such as the ISS; scientific satellites like the Hubble; Earth observation satellites from companies like Planet Labs, Umbra, and HawkEye 360; GPS; miniature CubeSats for education and research; and military/defense satellites.

Loading next visibility...
STARLINK-1042 details
Identifier
44747, 2019-074AL
Orbit
LEO
Last TLE update1 day ago
Origin
Flag of USSpaceX/Seattle (US)
ManufacturerSpaceX/Seattle
MissionPartially operational Commercial Communications
Bus & MotorSTARLINK, Unknown motor
Mass260 kg wet, ~248 kg dry
Launch date (UTC)
2019-11-11 (5 years ago)
Launch vehicle
FALCON 9
Launch site
Air Force Eastern Test Range (AFETR)
Object type
Payload
Rocket body
Debris
Shape & HBRBox + 1 Pan, 8.86 m
Radar Cross Section13.562 m², Large (>1 m²)

Expand to show TLE details & history

TLE from 1 day ago
0 STARLINK-1042
1 44747U 19074AL  25043.51134859  .00016356  00000-0  51736-3 0  9993
2 44747  53.0515 141.5617 0004070  18.1499 341.9647 15.32932033290089
Epoch: 2025-02-12T12:16Z
Definitive object data (Epoch: 2025-02-12T12:16:20.518Z)
Latitude0.00007°
Longitude174.67549°
Altitude465.31 km
Speed7.636 km/s
True Right ascension09h 26m 14s
True Declination0° 00' 00"
Sunlit
Object was in full shadow at TLE epoch
Visualization TLE readout
Latitude4.63568°
Longitude172.96326°
Altitude464.685 km
Speed7.637 km/s
Apparent Right ascension07h 44m 47s
Apparent Declination-18° 51' 19"
Sunlit
Object is in full shadow
Visualization observer readout
Local Sidereal Time17:28:57
Azimuth295.824° NW
Elevation-54.039°
Doppler factor1
Orbital elements
Apogee altitude470.13 km
Perigee altitude464.558 km
Semi-major axis6,845.481 km
Eccentricity0.000407
Inclination53.0515°
RAAN141.5617°
Arg. of periapsis18.1499°
True anomaly341.95025°
Mean anomaly341.9647°
Eccentric anomaly341.95748°
Mean motion3.8321 °/min
BSTAR0.00051736
Orbital period93.94 mins
Loading maneuver chart data...

STARLINK-1042 Visibility forecast

Observer location: undefined°, undefined

Span
Click to sort rows by Start time (UTC) header in descending order
Start Az.
Max El. time (UTC)
Max El. Az.
Max El.
End time (UTC)
End Az.
6 mins2025-02-13 15:20:51.647Z320.079° NNW2025-02-13 15:23:51.647Z17.873° NNE36.083°2025-02-13 15:26:51.647Z106.918° ESE
5 mins2025-02-14 08:15:51.647Z194.893° SSW2025-02-14 08:17:51.647Z129.55° SE34.327°2025-02-14 08:20:51.647Z64.003° ENE
4 mins2025-02-14 09:53:51.647Z288.835° WNW2025-02-14 09:55:51.647Z339.306° N23.691°2025-02-14 09:57:51.647Z22.027° NNE
4 mins2025-02-14 14:49:51.647Z332.962° NNW2025-02-14 14:51:51.647Z29.316° NE32.702°2025-02-14 14:53:51.647Z91.523° ESE
|